Tracking 28799 objects as of 18-Apr-2024
HD Live streaming from Space Station
objects crossing your sky now

LEMUR 2 MONSON

Track LEMUR 2 MONSON now!
10-day predictions
LEMUR 2 MONSON is classified as:


NORAD ID: 42839
Int'l Code: 2017-042Q
Perigee: 561.1 km
Apogee: 576.5 km
Inclination: 97.4 °
Period: 95.9 minutes
Semi major axis: 6939 km
RCS: Unknown
Launch date: July 14, 2017
Source: United States (US)
Launch site: TYURATAM MISSILE AND SPACE COMPLEX (TTMTR)
Your satellite tracking list
Your tracking list is empty




NASA's NSSDC Master Catalog

Two Line Element Set (TLE):
1 42839U 17042Q   24108.48564108  .00016262  00000-0  12515-2 0  9994
2 42839  97.3936 299.6614 0011041 227.7690 132.2599 15.01700420368471
Source of the keplerian elements: AFSPC